sat.trackr.live / text

‹ back to catalog

STARLINK-35454

NORAD 66236 · 2025-245C

PAYLOAD ACTIVE UNKNOWN

§ Identity

Operator
Country
US
Launch date
2025-10-29
Launch site
AFETR
Launch vehicle
Mass (kg)
RCS (m²)

Purposes: comms

External: N2YO · Heavens-Above · Gunter

§ Orbital elements

Epoch: 2026-09-20T15:02:17.819232Z

Period
93.85 min
Inclination
53.1577°
Eccentricity
0.0000924
Mean motion
15.34375005 rev/d
Perigee alt
462.1 km
Apogee alt
463.4 km
Semi-major
6,840.9 km
B*
4.2292e-4
RAAN
96.9187°
Arg perigee
79.6188°
Mean anomaly
280.4919°
Rev number
5,096

§ Raw data

STARLINK-354541 66236U 25245C   26263.62659513  .00013928  00000+0  42292-3 0  99912 66236  53.1577  96.9187 0000924  79.6188 280.4919 15.34375005 50963

JSON: /api/v1/satellites/66236 · /tle

For live sub-satellite position, see the globe view (requires WebGL).

§ Visibility from observer

Set your observer location to see the next 7 days of passes ≥ 10°. The values pass through the URL so the page stays shareable.

No JS? Fill the form by hand. The geolocation button needs JavaScript.